{"data":{"norad_id":41903,"intl_designator":"2016-082A","name":"JCSAT-110A (JCSAT-15)","alt_names":[],"object_type":"PAYLOAD","status":"ACTIVE","operator":null,"country":"JPN","launch_date":"2016-12-21","launch_site_code":"FRGUI","launch_vehicle":null,"mission":null,"orbit_class":"UNKNOWN","rcs_meters":71.039,"size_class":null,"mass_kg":null,"dimensions":null,"purposes":["comms"],"wikipedia_slug":null,"has_3d_model":false,"image_url":null,"decayed_at":null,"tle_current":{"epoch":"2026-05-25T00:50:43.777824Z","epoch_age_seconds":69057,"freshness":"FRESH","line1":"1 41903U 16082A   26145.03522891 -.00000353  00000+0  00000+0 0  9992","line2":"2 41903   0.0166 338.7351 0000800 107.7694 278.8688  1.00270550 34525","mean_motion":1.0027055,"eccentricity":8.0e-5,"inclination_deg":0.0166,"raan_deg":338.7351,"arg_perigee_deg":107.7694,"mean_anomaly_deg":278.8688,"bstar":0,"rev_number":3452,"period_min":1436.1145919714,"perigee_km":35783.567973822,"apogee_km":35790.31438633,"semimajor_km":42165.078180076,"source":"CELESTRAK","updated_at":"2026-05-25T13:38:14.011181Z"}}}